Printer-friendly version

IAU Minor Planet Center

Minor Planet Center

MPEC 2008-S94 : 2008 SX148

The following Minor Planet Electronic Circular may be linked-to from your own Web pages, but must not otherwise be redistributed electronically.


Read MPEC 2008-S93 Read MPEC 2008-S95


M.P.E.C. 2008-S94                                Issued 2008 Sept. 30, 18:03 UT

     The Minor Planet Electronic Circulars contain information on unusual
         minor planets and routine data on comets.  They are published
   on behalf of Commission 20 of the International Astronomical Union by the
          Minor Planet Center, Smithsonian Astrophysical Observatory,
                          Cambridge, MA 02138, U.S.A.

             Prepared using the Tamkin Foundation Computer Network

                              MPC@CFA.HARVARD.EDU
          URL http://www.cfa.harvard.edu/iau/mpc.html  ISSN 1523-6714

                                  2008 SX148

Observations:
     K08SE8X* C2008 09 29.25227 23 40 42.09 +16 47 53.3          21.2 V ES094G96
     K08SE8X  C2008 09 29.25718 23 40 40.80 +16 47 57.5          21.3 V ES094G96
     K08SE8X  C2008 09 29.26207 23 40 39.50 +16 48 01.8          21.4 V ES094G96
     K08SE8X  C2008 09 29.26708 23 40 38.17 +16 48 05.7          21.2 V ES094G96
     K08SE8X  C2008 09 29.32302 23 40 23.37 +16 48 52.0          21.1 V ES094G96
     K08SE8X  C2008 09 29.32469 23 40 22.98 +16 48 53.5          21.1 V ES094G96
     K08SE8X  C2008 09 29.32638 23 40 22.47 +16 48 55.0          21.0 V ES094G96
     K08SE8X  C2008 09 29.32803 23 40 22.04 +16 48 56.3          21.2 V ES094G96
     K08SE8X 1C2008 09 29.35156 23 40 16.45 +16 49 06.3                 ES094658
     K08SE8X 1C2008 09 29.35377 23 40 16.02 +16 49 06.8                 ES094658
     K08SE8X 1C2008 09 29.35597 23 40 15.50 +16 49 07.5                 ES094658
     K08SE8X HC2008 09 30.38555 23 36 08.14 +17 02 45.2                 ES094291
     K08SE8X HC2008 09 30.38934 23 36 07.28 +17 02 47.2                 ES094291
     K08SE8X HC2008 09 30.39318 23 36 06.38 +17 02 49.5                 ES094291
     K08SE8X  C2008 09 30.39743 23 36 05.22 +17 02 53.9                 ES094291
     K08SE8X  C2008 09 30.39745 23 36 05.22 +17 02 52.8          22.4 V ES094G96
     K08SE8X  C2008 09 30.39881 23 36 04.91 +17 02 53.4          21.6 V ES094G96
     K08SE8X  C2008 09 30.40015 23 36 04.55 +17 02 54.5          21.6 V ES094G96
     K08SE8X HC2008 09 30.40135 23 36 04.33 +17 02 56.2                 ES094291
     K08SE8X  C2008 09 30.40152 23 36 04.23 +17 02 55.2          22.1 V ES094G96
     K08SE8X HC2008 09 30.40516 23 36 03.42 +17 02 57.9                 ES094291

Observer details:
291 LPL/Spacewatch II.  Observer T. H. Bressi.  1.8-m f/2.7 reflector + CCD.
658 National Research Council of Canada.  Observers D. D. Balam, R. M. Robb.
    Measurers D. D. Balam, P. Wiegert.  1.82-m Plaskett telescope + CCD.
G96 Mt. Lemmon Survey.  Observer A. Boattini.  Measurers E. C. Beshore,
    A. Boattini, G. J. Garradd, A. R. Gibbs, A. D. Grauer, R. E. Hill,
    R. A. Kowalski, S. M. Larson, R. H. McNaught.  1.5-m reflector + CCD.

Orbital elements:
2008 SX148                                               Earth MOID = 0.0410 AU
Epoch 2008 Nov. 30.0 TT = JDT 2454800.5                 MPC
M 136.29770              (2000.0)            P               Q
n   0.83107285     Peri.  252.65280     -0.38118615     +0.92421664
a   1.1204092      Node   354.76828     -0.72438894     -0.31392305
e   0.3027264      Incl.   14.49272     -0.57441951     -0.21743029
P   1.19           H   23.7           G   0.15           U   9
Residuals in seconds of arc
080929 G96  0.1-  0.0     080929 G96  0.2-  0.0     080930 291  0.8-  0.8+
080929 G96  0.1+  0.0     080929 658  1.8-  1.4+    080930 G96  0.6-  0.1+
080929 G96  0.1+  0.2+    080929 658  0.3+  0.1+    080930 G96  0.3-  0.2-
080929 G96  0.1+  0.2-    080929 658  1.0+  1.0-    080930 G96  0.8-  0.0
080929 G96  0.0   0.2-    080930 291  0.3-  0.3+    080930 291  0.0   0.4+
080929 G96  0.7+  0.1-    080930 291  0.6+  0.3-    080930 G96  0.7-  0.2-
080929 G96  0.3-  0.0     080930 291  1.0+  0.7-    080930 291  0.1+  0.5-

Ephemeris:
2008 SX148               a,e,i = 1.12, 0.30, 14                  q = 0.7812
Date    TT    R. A. (2000) Decl.     Delta      r     Elong.  Phase     V
2008 10 01    23 33.85   +17 10.2    0.207    1.198   160.4    16.2    21.6
2008 10 02    23 30.27   +17 20.9    0.213    1.203   159.3    17.1    21.7
2008 10 03    23 26.93   +17 30.4    0.220    1.207   158.2    18.0    21.8
2008 10 04    23 23.81   +17 38.6    0.226    1.212   157.0    18.8    21.9
2008 10 05    23 20.91   +17 45.9    0.233    1.216   155.8    19.7    21.9
2008 10 06    23 18.21   +17 52.2    0.239    1.220   154.7    20.5    22.0
2008 10 07    23 15.71   +17 57.7    0.246    1.225   153.5    21.3    22.1
2008 10 08    23 13.39   +18 02.5    0.253    1.229   152.4    22.1    22.2
2008 10 09    23 11.26   +18 06.6    0.260    1.233   151.2    22.9    22.3
2008 10 10    23 09.29   +18 10.1    0.267    1.237   150.1    23.7    22.4
2008 10 11    23 07.48   +18 13.1    0.274    1.242   149.0    24.4    22.5

Timothy B. Spahr             (C) Copyright 2008 MPC           M.P.E.C. 2008-S94

Read MPEC 2008-S93 Read MPEC 2008-S95


Our Web policy. Index to the CBAT/MPC/ICQ pages.


Valid HTML 4.01!